Погода в Мори

Австралия     29°27′57″S   149°50′30″E
темп.,
°C
ветер,
м/с
пор.,
м/с
влажн.,
%
обл.,
%
осадки,
мм/ч
давл.,
гПа
погр.,
м
24 мая, вт
вт2401:00+15в228291 0.2 102445
04:00+14в3679100 0.3 1023157
07:00+13вюв367998 0.0 1023122
10:00+17в456288 0.0 1025515
13:00+20в335626 0.0 1022956
16:00+20юв235412 0.0 1021949
19:00+16в227212 0.2 102218
22:00+16в4873100 0.3 1023203
25 мая, ср
ср2501:00+15всв477664 0.0 1023250
04:00+13в378240 0.0 1022133
07:00+12в4781100 0.0 1022125
10:00+17в4566100 0.0 1022419
13:00+20всв345895 0.0 10201047
16:00+20вюв2260100 0.0 1018651
19:00+17вюв2267100 0.3 102024
22:00+16в3369100 0.3 102038
26 мая, чт
чт2601:00+15всв2380100 0.3 101952
04:00+13в338395 0.6 101952
07:00+13в35845 0.0 102069
10:00+18в34625 0.0 1020453
13:00+21вюв22515 0.0 10171110
16:00+21ююв22505 0.0 10161187
19:00+17ю336276 0.0 101821
22:00+16ю226430 0.0 101815
27 мая, пт
пт2701:00+14всв33745 0.0 101844
04:00+13св33825 0.0 101830
07:00+13всв22801 0.0 101911
10:00+18вюв11600 0.0 1019404
13:00+21юз22530 0.0 10161063
16:00+21юз33530 0.0 10151286
19:00+17ююз226584 0.0 101616
22:00+16ююз3366100 0.0 101626
28 мая, сб
сб2801:00+14ююз227164 0.0 101519
04:00+13юз33785 0.0 101535
07:00+13ююз22792 0.0 101516
10:00+18юз22610 0.0 1015469
13:00+20зюз44501 0.0 10131489
16:00+20зюз445117 0.0 10111309
19:00+15юз487959 0.8 1013161
22:00+15ююз4879100 0.8 1013295